RYR10XW LERS-EHEH

Flight info

Callsign RYR10XW
Flight time 2h 2m
Altitude 30000
Route ARBEK T113 RUTIP DCT OKABI/N0434F360 DCT TOU DCT ADABI DCT BOKNO UN858 VANAD UN874 ARSAF DCT EGOZE DCT CMB DCT VEKIN DCT ADUTO N873 FERDI Y18 DENUT
Aircraft B738/M-SDE3FGILRWY/SB1

Departure

Time 2026-04-21 23:12
Airport Reus Airport (LERS)

Arrival

Time 2026-04-22 01:14
Airport Eindhoven Airport (EHEH)
Time Latitude Longitude Altitude Speed Heading
2026-04-21 22:41 41.14665 1.15560 241 ft 0 kts 339°
2026-04-21 22:42 41.14663 1.15561 241 ft 0 kts 339°
2026-04-21 23:02 41.14644 1.15571 241 ft 4 kts 339°
2026-04-21 23:02 41.14619 1.15584 241 ft 4 kts 342°
2026-04-21 23:03 41.14596 1.15585 241 ft 4 kts 33°
2026-04-21 23:03 41.14579 1.15560 241 ft 4 kts 66°
2026-04-21 23:03 41.14576 1.15551 241 ft 0 kts 69°
2026-04-21 23:05 41.14578 1.15560 241 ft 3 kts 69°
2026-04-21 23:06 41.14589 1.15598 241 ft 6 kts 69°
2026-04-21 23:06 41.14610 1.15669 241 ft 10 kts 69°
2026-04-21 23:06 41.14640 1.15770 241 ft 14 kts 68°
2026-04-21 23:06 41.14677 1.15898 255 ft 16 kts 69°
2026-04-21 23:07 41.14720 1.16046 243 ft 18 kts 69°
2026-04-21 23:07 41.14768 1.16211 243 ft 20 kts 69°
2026-04-21 23:07 41.14821 1.16393 243 ft 22 kts 69°
2026-04-21 23:07 41.14879 1.16589 243 ft 24 kts 69°
2026-04-21 23:08 41.14941 1.16800 243 ft 25 kts 68°
2026-04-21 23:08 41.15006 1.17024 243 ft 27 kts 69°
2026-04-21 23:08 41.15072 1.17249 243 ft 25 kts 69°
2026-04-21 23:08 41.15133 1.17458 243 ft 24 kts 69°
2026-04-21 23:09 41.15191 1.17655 243 ft 23 kts 68°
2026-04-21 23:09 41.15247 1.17848 243 ft 22 kts 69°
2026-04-21 23:09 41.15302 1.18033 243 ft 19 kts 69°
2026-04-21 23:09 41.15335 1.18150 243 ft 12 kts 70°
2026-04-21 23:10 41.15322 1.18242 243 ft 11 kts 154°
2026-04-21 23:10 41.15248 1.18280 243 ft 11 kts 161°
2026-04-21 23:10 41.15187 1.18245 243 ft 11 kts 248°
2026-04-21 23:10 41.15176 1.18209 243 ft 0 kts 249°
2026-04-21 23:11 41.15070 1.17849 243 ft 79 kts 249°
2026-04-21 23:11 41.14788 1.16883 243 ft 143 kts 249°
2026-04-21 23:11 41.14379 1.15480 564 ft 170 kts 250°
2026-04-21 23:12 41.13891 1.14071 1426 ft 170 kts 234°
2026-04-21 23:12 41.13057 1.12832 1965 ft 189 kts 234°
2026-04-21 23:12 41.12407 1.11265 2653 ft 195 kts 239°
2026-04-21 23:12 41.11689 1.09631 2934 ft 216 kts 238°
2026-04-21 23:13 41.10904 1.07825 3177 ft 243 kts 238°
2026-04-21 23:13 41.10069 1.05829 3891 ft 250 kts 239°
2026-04-21 23:13 41.09237 1.03792 4747 ft 253 kts 241°
2026-04-21 23:13 41.08406 1.01713 5506 ft 258 kts 242°
2026-04-21 23:14 41.07565 0.99578 6242 ft 263 kts 243°
2026-04-21 23:14 41.06714 0.97404 6938 ft 268 kts 243°
2026-04-21 23:14 41.05857 0.95199 7682 ft 271 kts 244°
2026-04-21 23:14 41.04989 0.92970 8409 ft 274 kts 244°
2026-04-21 23:15 41.04189 0.90703 9131 ft 277 kts 254°
2026-04-21 23:15 41.04011 0.88165 9846 ft 280 kts 276°
2026-04-21 23:15 41.04527 0.85653 10342 ft 293 kts 294°
2026-04-21 23:15 41.05746 0.83375 10494 ft 317 kts 316°
2026-04-21 23:16 41.07681 0.81814 10815 ft 337 kts 339°
2026-04-21 23:16 41.09983 0.81081 11452 ft 344 kts 350°
2026-04-21 23:16 41.12388 0.80809 12154 ft 349 kts 355°
2026-04-21 23:16 41.14834 0.80780 12842 ft 355 kts 359°
2026-04-21 23:17 41.17278 0.81096 13528 ft 362 kts 10°
2026-04-21 23:17 41.19688 0.82144 14227 ft 368 kts 22°
2026-04-21 23:17 41.21937 0.83816 14933 ft 373 kts 31°
2026-04-21 23:17 41.24104 0.85746 15622 ft 377 kts 32°
2026-04-21 23:18 41.26286 0.87729 16287 ft 382 kts 33°
2026-04-21 23:18 41.28487 0.89733 16957 ft 386 kts 33°
2026-04-21 23:18 41.30721 0.91754 17649 ft 389 kts 32°
2026-04-21 23:18 41.32978 0.93785 18303 ft 394 kts 32°
2026-04-21 23:19 41.35260 0.95832 18893 ft 397 kts 32°
2026-04-21 23:19 41.37558 0.97889 19525 ft 399 kts 32°
2026-04-21 23:19 41.39842 0.99932 20098 ft 402 kts 32°
2026-04-21 23:19 41.42178 1.02024 20606 ft 407 kts 32°
2026-04-21 23:20 41.44547 1.04148 21073 ft 413 kts 32°
2026-04-21 23:20 41.46941 1.06298 21641 ft 416 kts 32°
2026-04-21 23:20 41.49348 1.08458 22218 ft 419 kts 32°
2026-04-21 23:20 41.51777 1.10639 22752 ft 422 kts 32°
2026-04-21 23:21 41.54315 1.12617 23243 ft 424 kts 23°
2026-04-21 23:21 41.57072 1.14014 23719 ft 424 kts 13°
2026-04-21 23:21 41.59897 1.14948 24201 ft 425 kts 11°
2026-04-21 23:21 41.62781 1.15843 24675 ft 426 kts 10°
2026-04-21 23:22 41.65681 1.16734 25119 ft 428 kts 10°
2026-04-21 23:22 41.68592 1.17647 25491 ft 432 kts 11°
2026-04-21 23:22 41.71523 1.18580 25885 ft 434 kts 11°
2026-04-21 23:22 41.74463 1.19531 26281 ft 436 kts 11°
2026-04-21 23:23 41.77421 1.20496 26692 ft 438 kts 11°
2026-04-21 23:23 41.80388 1.21466 27095 ft 439 kts 11°
2026-04-21 23:23 41.83331 1.22428 27453 ft 443 kts 11°
2026-04-21 23:23 41.86331 1.23409 27826 ft 445 kts 11°
2026-04-21 23:24 41.89343 1.24402 28169 ft 447 kts 11°
2026-04-21 23:24 41.92376 1.25399 28520 ft 450 kts 11°
2026-04-21 23:24 41.95429 1.26401 28861 ft 453 kts 11°
2026-04-21 23:24 41.98492 1.27412 29231 ft 455 kts 11°
2026-04-21 23:25 42.01575 1.28428 29557 ft 458 kts 11°
2026-04-21 23:25 42.04681 1.29451 29883 ft 460 kts 11°
2026-04-21 23:25 42.07751 1.30465 30179 ft 462 kts 11°
2026-04-21 23:25 42.10878 1.31498 30524 ft 462 kts 11°
2026-04-21 23:26 42.13997 1.32530 30977 ft 460 kts 11°
2026-04-21 23:26 42.17098 1.33553 31454 ft 458 kts 11°
2026-04-21 23:26 42.20189 1.34571 31940 ft 456 kts 11°
2026-04-21 23:26 42.23264 1.35586 32366 ft 454 kts 11°
2026-04-21 23:27 42.26335 1.36596 32770 ft 453 kts 11°
2026-04-21 23:27 42.29400 1.37601 33088 ft 454 kts 11°
2026-04-21 23:27 42.32424 1.38599 33462 ft 453 kts 10°
2026-04-21 23:27 42.35479 1.39608 33833 ft 451 kts 11°
2026-04-21 23:28 42.38527 1.40627 34141 ft 452 kts 10°
2026-04-21 23:28 42.41578 1.41583 34478 ft 449 kts 11°
2026-04-21 23:28 42.44613 1.42608 34797 ft 449 kts 11°
2026-04-21 23:28 42.47640 1.43638 35075 ft 449 kts 11°
2026-04-21 23:29 42.50676 1.44670 35276 ft 450 kts 11°
2026-04-21 23:29 42.53709 1.45707 35580 ft 449 kts 11°
2026-04-21 23:29 42.56733 1.46739 35875 ft 447 kts 11°
2026-04-21 23:29 42.59718 1.47702 36070 ft 446 kts
2026-04-21 23:30 42.62792 1.48127 36282 ft 442 kts 357°
2026-04-21 23:30 42.65840 1.47883 36589 ft 437 kts 350°
2026-04-21 23:30 42.68848 1.47389 36823 ft 436 kts 349°
2026-04-21 23:30 42.71860 1.46861 37013 ft 437 kts 349°
2026-04-21 23:31 42.74876 1.46334 37258 ft 437 kts 349°
2026-04-21 23:31 42.77883 1.45819 37553 ft 435 kts 349°
2026-04-21 23:31 42.80884 1.45314 37782 ft 434 kts 349°
2026-04-21 23:31 42.83891 1.44812 37944 ft 435 kts 349°
2026-04-21 23:32 42.89858 1.43838 37920 ft 434 kts 349°
2026-04-21 23:32 42.95576 1.42913 37918 ft 435 kts 349°
2026-04-21 23:33 43.01597 1.41937 37927 ft 437 kts 349°
2026-04-21 23:33 43.07636 1.40954 37916 ft 437 kts 349°
2026-04-21 23:34 43.13676 1.39966 37885 ft 437 kts 349°
2026-04-21 23:34 43.19720 1.38980 37881 ft 437 kts 349°
2026-04-21 23:35 43.25760 1.37992 37884 ft 437 kts 349°
2026-04-21 23:35 43.31800 1.37002 37875 ft 437 kts 349°
2026-04-21 23:36 43.37830 1.36010 37874 ft 436 kts 349°
2026-04-21 23:36 43.43856 1.35019 37881 ft 435 kts 349°
2026-04-21 23:37 43.49861 1.34031 37868 ft 435 kts 348°
2026-04-21 23:37 43.55857 1.33034 37867 ft 434 kts 349°
2026-04-21 23:38 43.61844 1.32039 37884 ft 433 kts 349°
2026-04-21 23:38 43.67824 1.31045 37884 ft 432 kts 348°
2026-04-21 23:39 43.73734 1.29695 37882 ft 430 kts 345°
2026-04-21 23:39 43.79600 1.28119 37884 ft 430 kts 344°
2026-04-21 23:40 43.85470 1.26582 37893 ft 429 kts 345°
2026-04-21 23:40 43.91341 1.25029 37883 ft 431 kts 345°
2026-04-21 23:41 43.97216 1.23514 37877 ft 430 kts 345°
2026-04-21 23:41 44.03094 1.21967 37900 ft 430 kts 345°
2026-04-21 23:42 44.08993 1.20431 37883 ft 431 kts 345°
2026-04-21 23:42 44.14846 1.18884 37886 ft 430 kts 345°
2026-04-21 23:43 44.20729 1.17337 37881 ft 430 kts 345°
2026-04-21 23:43 44.26615 1.15804 37886 ft 431 kts 345°
2026-04-21 23:44 44.32507 1.14263 37868 ft 431 kts 345°
2026-04-21 23:44 44.38400 1.12714 37884 ft 431 kts 345°
2026-04-21 23:45 44.47238 1.10382 37893 ft 431 kts 344°
2026-04-21 23:46 44.53135 1.08822 37892 ft 431 kts 344°
2026-04-21 23:46 44.59033 1.07260 37887 ft 431 kts 344°
2026-04-21 23:47 44.64922 1.05696 37892 ft 431 kts 344°
2026-04-21 23:47 44.70535 1.04204 37878 ft 424 kts 344°
2026-04-21 23:48 44.76315 1.02667 37898 ft 423 kts 344°
2026-04-21 23:48 44.82115 1.01116 37905 ft 425 kts 344°
2026-04-21 23:49 44.87940 0.99554 37899 ft 427 kts 344°
2026-04-21 23:49 44.93791 0.97983 37908 ft 429 kts 344°
2026-04-21 23:50 44.99669 0.96402 37922 ft 431 kts 344°
2026-04-21 23:50 45.05567 0.94814 37901 ft 432 kts 344°
2026-04-21 23:51 45.11475 0.93221 37915 ft 432 kts 344°
2026-04-21 23:51 45.17384 0.91621 37909 ft 432 kts 344°
2026-04-21 23:52 45.23289 0.90024 37914 ft 432 kts 343°
2026-04-21 23:52 45.29192 0.88421 37908 ft 432 kts 343°
2026-04-21 23:53 45.35077 0.86820 37914 ft 430 kts 343°
2026-04-21 23:53 45.40949 0.85219 37916 ft 429 kts 343°
2026-04-21 23:54 45.46804 0.83618 37921 ft 428 kts 343°
2026-04-21 23:54 45.52650 0.82017 37927 ft 427 kts 343°
2026-04-21 23:55 45.58480 0.80415 37937 ft 427 kts 343°
2026-04-21 23:55 45.64309 0.78811 37941 ft 426 kts 343°
2026-04-21 23:56 45.70091 0.77216 37933 ft 426 kts 343°
2026-04-21 23:56 45.75910 0.75610 37940 ft 426 kts 343°
2026-04-21 23:57 45.81742 0.73997 37950 ft 428 kts 343°
2026-04-21 23:57 45.87586 0.72373 37966 ft 428 kts 343°
2026-04-21 23:58 45.93442 0.70744 37958 ft 429 kts 343°
2026-04-21 23:58 45.99313 0.69108 37978 ft 430 kts 343°
2026-04-21 23:59 46.05202 0.67465 37967 ft 431 kts 343°
2026-04-21 23:59 46.11092 0.65814 37974 ft 431 kts 343°
2026-04-22 00:00 46.16988 0.64161 37988 ft 432 kts 344°
2026-04-22 00:00 46.22875 0.62508 37974 ft 431 kts 344°
2026-04-22 00:01 46.28750 0.60854 37968 ft 429 kts 344°
2026-04-22 00:01 46.33618 0.59481 37980 ft 428 kts 344°
2026-04-22 00:02 46.39449 0.57832 37991 ft 426 kts 344°
2026-04-22 00:02 46.45253 0.56186 37992 ft 424 kts 344°
2026-04-22 00:03 46.50775 0.54618 38001 ft 422 kts 343°
2026-04-22 00:03 46.56614 0.53634 38025 ft 428 kts 357°
2026-04-22 00:04 46.62545 0.55023 38026 ft 435 kts
2026-04-22 00:04 46.68436 0.57069 38018 ft 435 kts
2026-04-22 00:05 46.74337 0.59092 38012 ft 436 kts
2026-04-22 00:05 46.80258 0.61068 38017 ft 437 kts
2026-04-22 00:06 46.86193 0.63033 38019 ft 438 kts
2026-04-22 00:06 46.92159 0.65010 38016 ft 440 kts
2026-04-22 00:07 46.98139 0.67006 38039 ft 442 kts
2026-04-22 00:07 47.01146 0.68009 38178 ft 443 kts
2026-04-22 00:07 47.04149 0.69003 38430 ft 441 kts
2026-04-22 00:07 47.07167 0.69658 38672 ft 436 kts
2026-04-22 00:08 47.10183 0.69997 38870 ft 434 kts 359°
2026-04-22 00:08 47.13199 0.70249 39020 ft 434 kts 358°
2026-04-22 00:08 47.16221 0.70489 39039 ft 436 kts 358°
2026-04-22 00:09 47.22296 0.71036 39065 ft 437 kts 359°
2026-04-22 00:09 47.28359 0.71659 39065 ft 436 kts 359°
2026-04-22 00:10 47.34394 0.72298 39073 ft 434 kts 359°
2026-04-22 00:10 47.40398 0.72932 39087 ft 431 kts 360°
2026-04-22 00:11 47.46335 0.73555 39072 ft 429 kts 360°
2026-04-22 00:11 47.52241 0.75002 39077 ft 435 kts 13°
2026-04-22 00:12 47.57976 0.77881 39077 ft 435 kts 14°
2026-04-22 00:12 47.63702 0.80797 39083 ft 435 kts 14°
2026-04-22 00:13 47.69445 0.83652 39080 ft 435 kts 14°
2026-04-22 00:13 47.75185 0.86482 39088 ft 435 kts 14°
2026-04-22 00:14 47.80934 0.89326 39114 ft 436 kts 14°
2026-04-22 00:14 47.86692 0.92195 39099 ft 437 kts 14°
2026-04-22 00:15 47.92448 0.95107 39100 ft 437 kts 14°
2026-04-22 00:15 47.98201 0.98026 39103 ft 437 kts 14°
2026-04-22 00:16 48.03959 1.00950 39110 ft 437 kts 14°
2026-04-22 00:16 48.09717 1.03880 39113 ft 437 kts 14°
2026-04-22 00:17 48.15467 1.06815 39117 ft 436 kts 14°
2026-04-22 00:17 48.21208 1.09748 39120 ft 435 kts 14°
2026-04-22 00:18 48.26939 1.12671 39140 ft 435 kts 14°
2026-04-22 00:18 48.32673 1.15593 39131 ft 435 kts 14°
2026-04-22 00:19 48.38394 1.18515 39132 ft 434 kts 14°
2026-04-22 00:19 48.44104 1.21443 39155 ft 433 kts 14°
2026-04-22 00:20 48.49809 1.24374 39147 ft 433 kts 14°
2026-04-22 00:20 48.55505 1.27306 39147 ft 432 kts 14°
2026-04-22 00:21 48.61210 1.30192 39173 ft 432 kts 13°
2026-04-22 00:21 48.66910 1.33054 39174 ft 432 kts 14°
2026-04-22 00:22 48.72617 1.35934 39171 ft 432 kts 14°
2026-04-22 00:22 48.78317 1.38822 39169 ft 432 kts 14°
2026-04-22 00:23 48.83971 1.41696 39175 ft 431 kts 14°
2026-04-22 00:23 48.89696 1.44611 39180 ft 431 kts 14°
2026-04-22 00:24 48.95297 1.47723 39168 ft 436 kts 22°
2026-04-22 00:24 49.00270 1.53113 39176 ft 447 kts 41°
2026-04-22 00:25 49.04448 1.60188 39174 ft 449 kts 44°
2026-04-22 00:25 49.08543 1.67380 39192 ft 449 kts 44°
2026-04-22 00:26 49.12666 1.74541 39183 ft 449 kts 44°
2026-04-22 00:26 49.16810 1.81683 39192 ft 449 kts 44°
2026-04-22 00:27 49.20951 1.88826 39179 ft 448 kts 44°
2026-04-22 00:27 49.25080 1.95972 39203 ft 448 kts 44°
2026-04-22 00:28 49.29198 2.03119 39211 ft 447 kts 44°
2026-04-22 00:28 49.33306 2.10267 39208 ft 447 kts 44°
2026-04-22 00:29 49.37405 2.17420 39217 ft 446 kts 44°
2026-04-22 00:29 49.41489 2.24567 39226 ft 445 kts 44°
2026-04-22 00:30 49.45564 2.31722 39208 ft 444 kts 44°
2026-04-22 00:30 49.49626 2.38876 39215 ft 444 kts 44°
2026-04-22 00:31 49.53684 2.46036 39216 ft 444 kts 44°
2026-04-22 00:31 49.58334 2.52054 39215 ft 434 kts 28°
2026-04-22 00:32 49.63475 2.56944 39213 ft 434 kts 27°
2026-04-22 00:32 49.68614 2.61832 39219 ft 434 kts 28°
2026-04-22 00:33 49.73743 2.66792 39225 ft 435 kts 28°
2026-04-22 00:33 49.78872 2.71793 39239 ft 436 kts 28°
2026-04-22 00:34 49.84005 2.76816 39227 ft 437 kts 28°
2026-04-22 00:34 49.89133 2.81847 38850 ft 445 kts 28°
2026-04-22 00:34 49.91752 2.84420 38299 ft 444 kts 28°
2026-04-22 00:35 49.94339 2.86971 37920 ft 438 kts 28°
2026-04-22 00:35 49.96896 2.89495 37489 ft 433 kts 28°
2026-04-22 00:35 49.99424 2.91992 37116 ft 428 kts 27°
2026-04-22 00:35 50.01928 2.94466 36722 ft 424 kts 27°
2026-04-22 00:36 50.04404 2.96918 36359 ft 420 kts 27°
2026-04-22 00:36 50.06853 2.99343 35993 ft 415 kts 26°
2026-04-22 00:36 50.09277 3.01745 35627 ft 411 kts 26°
2026-04-22 00:36 50.11683 3.04131 35249 ft 407 kts 25°
2026-04-22 00:37 50.14063 3.06495 34890 ft 404 kts 25°
2026-04-22 00:37 50.16423 3.08843 34538 ft 401 kts 26°
2026-04-22 00:37 50.18765 3.11175 34153 ft 398 kts 25°
2026-04-22 00:37 50.21085 3.13489 33718 ft 395 kts 25°
2026-04-22 00:38 50.23415 3.15705 33361 ft 386 kts 20°
2026-04-22 00:38 50.25812 3.17468 33059 ft 378 kts 17°
2026-04-22 00:38 50.28212 3.19094 32691 ft 374 kts 16°
2026-04-22 00:38 50.30589 3.20693 32341 ft 370 kts 16°
2026-04-22 00:39 50.32941 3.22295 32000 ft 367 kts 16°
2026-04-22 00:39 50.35271 3.23905 31663 ft 365 kts 18°
2026-04-22 00:39 50.37585 3.25521 31314 ft 363 kts 19°
2026-04-22 00:39 50.39883 3.27133 30960 ft 361 kts 20°
2026-04-22 00:40 50.42146 3.28791 30729 ft 356 kts 22°
2026-04-22 00:40 50.44351 3.30536 30408 ft 354 kts 22°
2026-04-22 00:40 50.46538 3.32284 30055 ft 351 kts 22°
2026-04-22 00:40 50.48153 3.33564 29799 ft 348 kts 22°
2026-04-22 00:43 50.49985 3.35010 29520 ft 345 kts 22°
2026-04-22 00:43 50.52128 3.36669 29179 ft 341 kts 21°
2026-04-22 00:43 50.54274 3.38187 28894 ft 336 kts 20°
2026-04-22 00:44 50.56404 3.39637 28567 ft 332 kts 20°
2026-04-22 00:44 50.58522 3.41066 28237 ft 330 kts 20°
2026-04-22 00:44 50.60602 3.42473 27906 ft 329 kts 22°
2026-04-22 00:44 50.62709 3.43906 27582 ft 332 kts 22°
2026-04-22 00:45 50.64862 3.45380 27258 ft 344 kts 22°
2026-04-22 00:45 50.67082 3.46904 26903 ft 349 kts 23°
2026-04-22 00:45 50.69300 3.48432 26543 ft 347 kts 23°
2026-04-22 00:45 50.71507 3.49955 26194 ft 345 kts 23°
2026-04-22 00:46 50.73700 3.51470 25850 ft 343 kts 23°
2026-04-22 00:46 50.75876 3.52976 25507 ft 341 kts 24°
2026-04-22 00:46 50.78040 3.54477 25178 ft 338 kts 24°
2026-04-22 00:46 50.80187 3.55967 24839 ft 336 kts 24°
2026-04-22 00:47 50.82322 3.57450 24505 ft 334 kts 24°
2026-04-22 00:47 50.84447 3.58924 24176 ft 333 kts 25°
2026-04-22 00:47 50.86562 3.60396 23834 ft 331 kts 25°
2026-04-22 00:47 50.88668 3.61862 23432 ft 330 kts 25°
2026-04-22 00:48 50.90801 3.63176 23064 ft 329 kts 17°
2026-04-22 00:48 50.93037 3.63872 22765 ft 327 kts
2026-04-22 00:48 50.94571 3.64019 22584 ft 326 kts
2026-04-22 00:48 50.96831 3.64152 22319 ft 324 kts
2026-04-22 00:49 50.99079 3.64267 22043 ft 322 kts
2026-04-22 00:49 51.01278 3.64382 21786 ft 320 kts
2026-04-22 00:49 51.03533 3.64510 21521 ft 319 kts
2026-04-22 00:49 51.05760 3.64645 21269 ft 322 kts
2026-04-22 00:50 51.07997 3.64786 21022 ft 321 kts
2026-04-22 00:50 51.10220 3.64927 20774 ft 318 kts
2026-04-22 00:50 51.12421 3.65070 20459 ft 315 kts
2026-04-22 00:50 51.14606 3.65212 20156 ft 313 kts
2026-04-22 00:51 51.16776 3.65353 19839 ft 312 kts
2026-04-22 00:51 51.18936 3.65493 19538 ft 309 kts
2026-04-22 00:51 51.21052 3.65631 19233 ft 308 kts
2026-04-22 00:51 51.23148 3.66113 18927 ft 302 kts 20°
2026-04-22 00:52 51.25050 3.67412 18730 ft 294 kts 33°
2026-04-22 00:52 51.26731 3.69233 18430 ft 291 kts 38°
2026-04-22 00:52 51.28362 3.71130 18111 ft 289 kts 38°
2026-04-22 00:52 51.29970 3.73012 17842 ft 286 kts 38°
2026-04-22 00:53 51.31432 3.74713 17577 ft 283 kts 38°
2026-04-22 00:53 51.33021 3.76555 17278 ft 282 kts 38°
2026-04-22 00:53 51.34616 3.78394 16809 ft 286 kts 38°
2026-04-22 00:53 51.36235 3.80258 16453 ft 286 kts 38°
2026-04-22 00:54 51.37853 3.82117 16123 ft 286 kts 38°
2026-04-22 00:54 51.39461 3.83966 15830 ft 284 kts 38°
2026-04-22 00:54 51.40978 3.85964 15501 ft 281 kts 52°
2026-04-22 00:54 51.41986 3.88589 15268 ft 275 kts 69°
2026-04-22 00:55 51.42538 3.91506 15003 ft 273 kts 76°
2026-04-22 00:55 51.42978 3.94453 14722 ft 272 kts 76°
2026-04-22 00:55 51.43825 4.00317 14153 ft 269 kts 76°
2026-04-22 00:56 51.44252 4.03228 13854 ft 267 kts 76°
2026-04-22 00:56 51.44678 4.06115 13554 ft 266 kts 76°
2026-04-22 00:56 51.45103 4.08988 13290 ft 264 kts 76°
2026-04-22 00:56 51.45527 4.11839 13006 ft 262 kts 76°
2026-04-22 00:57 51.45949 4.14668 12727 ft 260 kts 76°
2026-04-22 00:57 51.46368 4.17476 12451 ft 258 kts 76°
2026-04-22 00:57 51.46783 4.20257 12189 ft 256 kts 76°
2026-04-22 00:57 51.47195 4.23021 11914 ft 254 kts 76°
2026-04-22 00:58 51.47604 4.25771 11645 ft 253 kts 76°
2026-04-22 00:58 51.48010 4.28503 11382 ft 251 kts 76°
2026-04-22 00:58 51.48414 4.31225 11112 ft 251 kts 76°
2026-04-22 00:58 51.48816 4.33941 10844 ft 250 kts 76°
2026-04-22 00:59 51.49216 4.36644 10589 ft 248 kts 76°
2026-04-22 00:59 51.49603 4.39266 10514 ft 234 kts 76°
2026-04-22 00:59 51.49965 4.41723 10388 ft 218 kts 76°
2026-04-22 00:59 51.50299 4.43998 10254 ft 201 kts 76°
2026-04-22 01:00 51.50619 4.46173 9871 ft 200 kts 76°
2026-04-22 01:00 51.50932 4.48306 9644 ft 194 kts 76°
2026-04-22 01:00 51.51238 4.50393 9414 ft 190 kts 77°
2026-04-22 01:00 51.51539 4.52449 9211 ft 189 kts 76°
2026-04-22 01:01 51.51634 4.54540 8980 ft 191 kts 102°
2026-04-22 01:01 51.51182 4.56545 8815 ft 192 kts 107°
2026-04-22 01:01 51.50719 4.58580 8620 ft 196 kts 107°
2026-04-22 01:01 51.50252 4.60653 8406 ft 199 kts 107°
2026-04-22 01:02 51.49784 4.62726 8200 ft 195 kts 107°
2026-04-22 01:02 51.49319 4.64725 7980 ft 187 kts 107°
2026-04-22 01:02 51.48885 4.66624 7787 ft 177 kts 107°
2026-04-22 01:02 51.48471 4.68443 7601 ft 170 kts 106°
2026-04-22 01:03 51.48074 4.70188 7434 ft 168 kts 106°
2026-04-22 01:03 51.47673 4.71945 7260 ft 168 kts 107°
2026-04-22 01:03 51.47275 4.73699 7104 ft 167 kts 106°
2026-04-22 01:04 51.46474 4.77200 6763 ft 169 kts 107°
2026-04-22 01:04 51.46060 4.79004 6557 ft 172 kts 107°
2026-04-22 01:04 51.45645 4.80811 6360 ft 172 kts 107°
2026-04-22 01:04 51.45243 4.82563 6192 ft 168 kts 108°
2026-04-22 01:05 51.44839 4.84316 5998 ft 166 kts 107°
2026-04-22 01:05 51.44434 4.86037 5812 ft 164 kts 108°
2026-04-22 01:05 51.44038 4.87754 5648 ft 165 kts 108°
2026-04-22 01:05 51.43638 4.89498 5487 ft 169 kts 108°
2026-04-22 01:06 51.43231 4.91279 5308 ft 171 kts 108°
2026-04-22 01:06 51.42823 4.93045 5107 ft 167 kts 109°
2026-04-22 01:06 51.42421 4.94777 4941 ft 165 kts 108°
2026-04-22 01:06 51.42025 4.96498 4761 ft 169 kts 109°
2026-04-22 01:07 51.41620 4.98263 4560 ft 168 kts 109°
2026-04-22 01:07 51.41219 4.99997 4397 ft 165 kts 109°
2026-04-22 01:07 51.40819 5.01704 4266 ft 160 kts 109°
2026-04-22 01:07 51.40436 5.03360 4196 ft 159 kts 109°
2026-04-22 01:08 51.40044 5.05031 4112 ft 162 kts 109°
2026-04-22 01:08 51.39651 5.06727 4042 ft 163 kts 109°
2026-04-22 01:08 51.39256 5.08424 3978 ft 162 kts 109°
2026-04-22 01:08 51.38859 5.10120 3912 ft 163 kts 109°
2026-04-22 01:09 51.38468 5.11791 3849 ft 163 kts 110°
2026-04-22 01:09 51.38061 5.13484 3764 ft 164 kts 115°
2026-04-22 01:09 51.37424 5.15043 3641 ft 173 kts 124°
2026-04-22 01:09 51.36704 5.16567 3398 ft 167 kts 125°
2026-04-22 01:10 51.36030 5.18017 3231 ft 158 kts 124°
2026-04-22 01:10 51.35392 5.19401 3037 ft 152 kts 124°
2026-04-22 01:10 51.34779 5.20740 2880 ft 146 kts 123°
2026-04-22 01:10 51.34183 5.22053 2723 ft 146 kts 121°
2026-04-22 01:11 51.33989 5.23555 2628 ft 146 kts 72°
2026-04-22 01:11 51.34540 5.24995 2448 ft 156 kts 56°
2026-04-22 01:11 51.35332 5.26185 2220 ft 158 kts 46°
2026-04-22 01:11 51.36129 5.27304 2057 ft 154 kts 47°
2026-04-22 01:12 51.36959 5.28371 1896 ft 158 kts 42°
2026-04-22 01:12 51.37854 5.29403 1648 ft 152 kts 40°
2026-04-22 01:12 51.38701 5.30358 1429 ft 144 kts 41°
2026-04-22 01:12 51.39505 5.31260 1240 ft 139 kts 40°
2026-04-22 01:13 51.40285 5.32136 1032 ft 137 kts 40°
2026-04-22 01:13 51.41060 5.33016 814 ft 140 kts 38°
2026-04-22 01:13 51.41864 5.33934 642 ft 142 kts 37°
2026-04-22 01:13 51.42676 5.34831 427 ft 140 kts 34°
2026-04-22 01:14 51.43470 5.35736 255 ft 142 kts 32°
2026-04-22 01:14 51.44282 5.36639 94 ft 140 kts 30°
2026-04-22 01:14 51.44991 5.37418 70 ft 97 kts 36°
2026-04-22 01:14 51.45371 5.37850 80 ft 37 kts 35°
2026-04-22 01:15 51.45448 5.37936 81 ft 8 kts 35°
2026-04-22 01:15 51.45533 5.38033 79 ft 23 kts 35°
2026-04-22 01:15 51.45691 5.38210 70 ft 26 kts 35°
2026-04-22 01:15 51.45827 5.38362 68 ft 18 kts 35°
2026-04-22 01:16 51.45904 5.38455 76 ft 9 kts 52°
2026-04-22 01:16 51.45891 5.38542 71 ft 9 kts 133°
2026-04-22 01:16 51.45852 5.38639 70 ft 12 kts 121°
2026-04-22 01:16 51.45798 5.38767 72 ft 8 kts 124°
2026-04-22 01:17 51.45795 5.38829 70 ft 5 kts 64°
2026-04-22 01:17 51.45822 5.38867 72 ft 5 kts 36°
2026-04-22 01:17 51.45857 5.38906 68 ft 7 kts 34°
2026-04-22 01:17 51.45886 5.38958 73 ft 7 kts 80°
2026-04-22 01:18 51.45873 5.39013 73 ft 0 kts 121°
2026-04-22 01:18 51.45867 5.39028 73 ft 1 kts 124°
2026-04-22 01:18 51.45859 5.39046 66 ft 2 kts 125°
2026-04-22 01:18 51.45858 5.39049 66 ft 0 kts 125°